Location: Glenbow
(51.1592°N, 114.3828°W)
Time: 20:10:57
(UTC+00:00)

Envisat - Pass Details

Date: 05 December 2021
Orbit: 764 x 766 km, 98.2° (Epoch: 26 January)

Event Time Altitude Azimuth Distance (km) Brightness Sun altitude
Rises 11:34:26 0° 24° (NNE) 3,247 6.6 -35.0°
Reaches altitude 10° 11:37:17 10° 40° (NE) 2,315 6.0 -34.5°
Maximum altitude 11:41:11 22° 90° (E) 1,642 5.3 -33.9°
Drops below altitude 10° 11:45:04 10° 140° (SE) 2,300 5.8 -33.3°
Sets 11:47:52 0° 156° (SSE) 3,221 6.5 -32.9°
